Location: Gulgong NSW 2852, Australia
(32.2976°S, 149.5548°E)
Time: 10:29:22
(UTC+11:00)

Envisat - Pass Details

Date: 14 December 2021
Orbit: 764 x 766 km, 98.2° (Epoch: 22 January)

Event Time Altitude Azimuth Distance (km) Brightness Sun altitude
Rises 04:02:10 0° 56° (NE) 3,225 6.4 -18.9°
Reaches altitude 10° 04:05:18 10° 77° (ENE) 2,308 5.9 -18.5°
Maximum altitude 04:08:19 16° 113° (ESE) 1,927 6.0 -18.0°
Drops below altitude 10° 04:11:21 10° 150° (SSE) 2,325 6.6 -17.5°
Sets 04:14:31 0° 171° (S) 3,260 7.1 -17.1°
